Location: Aufkirchen
(47.9603°N, 11.3653°E)
Time: 19:35:54
(UTC+01:00)

Vanguard 2 Rocket - Pass Details

Date: 25 September 2022
Orbit: 555 x 3321 km, 32.9° (Epoch: 27 November)

Event Time Altitude Azimuth Distance (km) Brightness Sun altitude
Exits shadow 05:34:29 11° 199° (SSW) 1,939 8.3 -15.8°
Maximum altitude 05:34:53 11° 194° (SSW) 1,907 8.3 -15.7°
Drops below altitude 10° 05:36:18 10° 174° (S) 1,924 8.5 -15.5°
Sets 05:39:53 0° 138° (SE) 2,716 9.7 -14.9°
